This is the latest recevied weather packets stored in our database for station/object ON7AMI-5. If no packets are shown the sender has not sent any weather packets the latest 1 day(s).
| Time | Temp. | Humidity | Pressure | Rain* | Wind** | Luminosity | Snow |
|---|---|---|---|---|---|---|---|
| 1777975529 | 12.22° C | 98% | 1012 hPa | 0 mm | 1.34 m/s, 17° | - | - |
| 1777975235 | 12.22° C | 98% | 1012.1 hPa | 0 mm | 2.24 m/s, 7° | - | - |
| 1777974936 | 11.67° C | 98% | 1012 hPa | 0 mm | 2.24 m/s, 30° | - | - |
| 1777974635 | 11.67° C | 98% | 1012 hPa | 0 mm | 4.92 m/s, 39° | - | - |
| 1777974336 | 11.67° C | 98% | 1012 hPa | 0 mm | 6.26 m/s, 15° | - | - |
| 1777974036 | 11.67° C | 98% | 1012 hPa | 0 mm | 5.81 m/s, 20° | - | - |
| 1777973736 | 11.67° C | 98% | 1012 hPa | 0 mm | 4.47 m/s, 13° | - | - |
| 1777973445 | 11.67° C | 98% | 1012 hPa | 0 mm | 3.58 m/s, 22° | - | - |
| 1777973129 | 11.67° C | 98% | 1012 hPa | 0 mm | 4.47 m/s, 19° | - | - |
| 1777972835 | 11.67° C | 98% | 1012 hPa | 0 mm | 5.81 m/s, 30° | - | - |
| 1777972535 | 11.67° C | 98% | 1012 hPa | 0 mm | 4.02 m/s, 18° | - | - |
| 1777972235 | 11.67° C | 98% | 1012.1 hPa | 0 mm | 2.68 m/s, 13° | - | - |
| 1777971935 | 11.67° C | 98% | 1012.1 hPa | 0 mm | 4.02 m/s, 17° | - | - |
| 1777971636 | 11.67° C | 98% | 1012.2 hPa | 0 mm | 4.47 m/s, 29° | - | - |
| 1777971336 | 11.67° C | 98% | 1012.2 hPa | 0 mm | 3.58 m/s, 23° | - | - |
| 1777971034 | 11.67° C | 98% | 1012.2 hPa | 0 mm | 3.13 m/s, 44° | - | - |
| 1777970735 | 11.67° C | 98% | 1012.2 hPa | 0 mm | 3.13 m/s, 19° | - | - |
| 1777970435 | 11.67° C | 98% | 1012.3 hPa | 0 mm | 4.92 m/s, 20° | - | - |
| 1777970135 | 11.67° C | 98% | 1012.2 hPa | 0 mm | 4.02 m/s, 43° | - | - |
| 1777969835 | 11.67° C | 98% | 1012.3 hPa | 0 mm | 2.68 m/s, 39° | - | - |
| 1777969535 | 11.67° C | 98% | 1012.3 hPa | 0 mm | 3.13 m/s, 33° | - | - |
| 1777969234 | 11.67° C | 98% | 1012.2 hPa | 0 mm | 2.24 m/s, 48° | - | - |
| 1777968935 | 11.67° C | 98% | 1012.2 hPa | 0 mm | 3.58 m/s, 43° | - | - |
| 1777968635 | 11.67° C | 98% | 1012.2 hPa | 0 mm | 4.02 m/s, 41° | - | - |
| 1777968335 | 11.67° C | 98% | 1012.2 hPa | 0 mm | 2.68 m/s, 51° | - | - |
* Rain latest hour (hover to see other rain measurements)
** Current wind speed in m/s (hover to see current wind gust speed)